Beaufort, NC

1:24 AM EDT on May 23, 2017 (GMT -0400)
Smith

Weather History for KMRH - March, 2014

Change the Weather History Date:

Wednesday, March 19, 2014

  Actual Average Record
Temperature  
Mean Temperature 54 °F -  
Max Temperature 64 °F 63 °F 76 °F (1974)
Min Temperature 45 °F 43 °F 22 °F (1967)
Degree Days  
Heating Degree Days 11    
Growing Degree Days 4 (Base 50)    
Moisture  
Dew Point 50 °F    
Average Humidity 90    
Maximum Humidity 100    
Minimum Humidity 75    
Precipitation  
Precipitation 0.00 in - - ()
Sea Level Pressure  
Sea Level Pressure 30.04 in    
Wind  
Wind Speed 11 mph (NNW)    
Max Wind Speed 16 mph    
Max Gust Speed 20 mph    
Visibility 5 miles    
Events Rain    
Averages and records for this station are not official NWS values.
T = Trace of Precipitation, MM = Missing Value Source: NWS Daily Summary

Daily Weather History Graph

Daily Weather History Graph

Search for Another Location

Airport or City:

Trip Planner

Search our weather history database for the weather conditions in past years. The results will help you decide how hot, cold, wet, or windy it might be!

Date:

Astronomy

Mar. 19, 2014 Rise Set
Actual Time 7:11 AM EDT 7:17 PM EDT
Civil Twilight 6:46 AM EDT 7:42 PM EDT
Nautical Twilight 6:17 AM EDT 8:12 PM EDT
Astronomical Twilight 5:47 AM EDT 8:41 PM EDT
Moon 10:25 PM EDT (3/19) 8:43 AM EDT (3/19)
Length of Visible Light 12h 56m
Length of Day
12h 05m
Waning Gibbous, 91% of the Moon is Illuminated
Mar 19
Waning Gibbous
Mar 23
Last Quarter
Mar 30
New
Apr 7
First Quarter
Apr 15
Full

Hourly Weather History & Observations

Time (EDT) Temp. Windchill Dew Point Humidity Pressure Visibility Wind Dir Wind Speed Gust Speed Precip Events Conditions
12:58 AM 45.0 °F 38.2 °F 43.0 °F 93% 30.06 in 4.0 mi North 15.0 mph - N/A   Overcast
1:58 AM 45.0 °F 37.9 °F 43.0 °F 93% 30.05 in 5.0 mi North 16.1 mph - 0.00 in   Overcast
2:58 AM 45.0 °F 37.9 °F 43.0 °F 93% 30.05 in 5.0 mi North 16.1 mph - N/A   Overcast
3:58 AM 45.0 °F 38.9 °F 44.1 °F 97% 30.04 in 5.0 mi North 12.7 mph - N/A   Overcast
4:41 AM 46.0 °F 40.6 °F 44.1 °F 93% 30.05 in 5.0 mi North 11.5 mph - N/A   Overcast
4:58 AM 46.0 °F 41.4 °F 44.1 °F 93% 30.05 in 5.0 mi North 9.2 mph - N/A   Overcast
5:49 AM 46.0 °F 40.6 °F 45.0 °F 96% 30.06 in 2.5 mi North 11.5 mph - N/A   Overcast
5:58 AM 46.0 °F 40.6 °F 45.0 °F 96% 30.06 in 2.0 mi North 11.5 mph - N/A   Overcast
6:58 AM 46.0 °F 40.2 °F 45.0 °F 96% 30.08 in 1.8 mi North 12.7 mph - N/A   Overcast
7:22 AM 46.0 °F 40.6 °F 45.0 °F 96% 30.08 in 1.0 mi North 11.5 mph - N/A   Overcast
7:39 AM 46.0 °F 40.6 °F 44.1 °F 93% 30.09 in 1.2 mi North 11.5 mph - N/A   Overcast
7:48 AM 46.0 °F 41.0 °F 44.1 °F 93% 30.09 in 1.0 mi North 10.4 mph - 0.00 in Rain Light Rain
7:58 AM 46.0 °F 41.4 °F 44.1 °F 93% 30.09 in 1.2 mi North 9.2 mph - 0.00 in Rain Light Rain
8:11 AM 46.0 °F 41.4 °F 44.1 °F 93% 30.09 in 2.5 mi North 9.2 mph - 0.00 in   Overcast
8:46 AM 46.0 °F 40.2 °F 44.1 °F 93% 30.10 in 3.0 mi North 12.7 mph 19.6 mph 0.00 in   Overcast
8:58 AM 46.0 °F 40.2 °F 45.0 °F 96% 30.10 in 7.0 mi North 12.7 mph - 0.00 in   Overcast
9:44 AM 48.0 °F - 46.0 °F 93% 30.09 in 10.0 mi North 9.2 mph - N/A   Overcast
9:58 AM 48.0 °F - 46.0 °F 93% 30.10 in 10.0 mi North 13.8 mph - N/A   Overcast
10:58 AM 52.0 °F - 48.9 °F 89% 30.09 in 10.0 mi North 13.8 mph - N/A   Overcast
11:34 AM 55.0 °F - 50.0 °F 83% 30.08 in 10.0 mi North 13.8 mph - N/A   Mostly Cloudy
11:45 AM 54.0 °F - 50.0 °F 86% 30.09 in 10.0 mi NNE 13.8 mph - N/A   Mostly Cloudy
11:58 AM 55.0 °F - 51.1 °F 86% 30.09 in 10.0 mi North 11.5 mph - N/A   Overcast
12:36 PM 57.0 °F - 52.0 °F 83% 30.08 in 10.0 mi NNE 10.4 mph - 0.00 in   Overcast
12:58 PM 59.0 °F - 53.1 °F 81% 30.08 in 8.0 mi NNE 9.2 mph - 0.00 in   Overcast
1:29 PM 60.1 °F - 53.1 °F 78% 30.05 in 9.0 mi NNE 6.9 mph - N/A   Overcast
1:37 PM 61.0 °F - 54.0 °F 78% 30.05 in 8.0 mi NNE 8.1 mph - N/A   Overcast
1:58 PM 63.0 °F - 55.0 °F 75% 30.04 in 8.0 mi NNE 4.6 mph - N/A   Overcast
2:13 PM 62.1 °F - 55.0 °F 78% 30.03 in 7.0 mi NNE 5.8 mph - N/A   Overcast
2:58 PM 61.0 °F - 55.0 °F 81% 30.01 in 10.0 mi NW 5.8 mph - N/A   Overcast
3:58 PM 62.1 °F - 55.9 °F 80% 29.99 in 10.0 mi WNW 6.9 mph - N/A   Overcast
4:58 PM 62.1 °F - 55.0 °F 78% 29.99 in 10.0 mi NW 8.1 mph - N/A   Overcast
5:43 PM 63.0 °F - 55.0 °F 75% 29.98 in 9.0 mi NNW 3.5 mph - N/A   Overcast
5:53 PM 62.6 °F - 55.4 °F 77% 29.97 in 9.0 mi NNW 3.5 mph - N/A   Overcast
5:58 PM 62.1 °F - 55.0 °F 78% 29.98 in 9.0 mi NNW 3.5 mph - N/A   Overcast
6:58 PM 59.0 °F - 54.0 °F 83% 29.97 in 10.0 mi SSW 4.6 mph - N/A   Overcast
7:58 PM 55.9 °F - 53.1 °F 90% 29.98 in 10.0 mi WSW 10.4 mph - N/A   Overcast
8:21 PM 55.9 °F - 54.0 °F 93% 29.99 in 2.5 mi WSW 9.2 mph - N/A   Overcast
8:45 PM 54.0 °F - 53.1 °F 97% 30.00 in 2.0 mi WSW 9.2 mph - N/A   Overcast
8:53 PM 53.6 °F - 51.8 °F 94% 30.00 in 1.5 mi WSW 11.5 mph - N/A   Overcast
8:58 PM 53.1 °F - 52.0 °F 96% 30.00 in 1.5 mi WSW 9.2 mph - N/A   Overcast
9:58 PM 52.0 °F - 51.1 °F 97% 30.00 in 1.2 mi WSW 6.9 mph - N/A   Overcast
10:13 PM 53.1 °F - 52.0 °F 96% 30.00 in 1.0 mi SW 5.8 mph - N/A   Mist
10:58 PM 52.0 °F - 52.0 °F 100% 30.00 in 1.0 mi WSW 6.9 mph - N/A   Overcast
11:05 PM 52.0 °F - 51.1 °F 97% 30.00 in 1.5 mi WSW 5.8 mph - N/A   Overcast
11:18 PM 52.0 °F - 51.1 °F 97% 30.00 in 1.0 mi SW 9.2 mph - N/A   Overcast
11:26 PM 52.0 °F - 51.1 °F 97% 30.00 in 0.8 mi WSW 10.4 mph - N/A   Overcast
11:34 PM 51.1 °F - 50.0 °F 96% 30.00 in 1.2 mi WSW 12.7 mph - N/A   Overcast
11:45 PM 51.1 °F - 50.0 °F 96% 30.00 in 2.5 mi WSW 11.5 mph - N/A   Overcast
11:56 PM 51.8 °F - 50.0 °F 94% 30.00 in 1.5 mi WSW 9.2 mph - N/A   Overcast
11:58 PM 51.1 °F - 50.0 °F 96% 30.00 in 1.5 mi WSW 13.8 mph - N/A   Overcast